weather.gov     
National Weather Service

Regional Weather Roundup
NWS Homepage
This page is being discontinued on March 12, 2014.
The same data is available at this site. Please update your bookmarks.
Thank you, and we apologize for the inconvenience.
Please send an email to SR-SRH.Webmaster@noaa.gov with any concerns.


Current Version
Previous Version:    01  02  03  04  05  06  07  08  09  10  11  12  13  14  15  16  17  18  19  20  21  22  23  24  25  26  27  28  29  30  
   31  32  33  34  35  36  37  38  39  40  41  42  43  44  45  46  47  48  49  50  51  52  53  54  55  56  57  58  59  60  
[Printable]
628
ASUS44 KLIX 222210
RWRLA
LOUISIANA WEATHER ROUNDUP
NATIONAL WEATHER SERVICE NEW ORLEANS LA
400 PM CST MON DEC 22 2014

NOTE: "FAIR" INDICATES FEW OR NO CLOUDS BELOW 12,000 FEET WITH NO
      SIGNIFICANT WEATHER AND/OR OBSTRUCTIONS TO VISIBILITY.
      SKY/WX - SKY CONDITION AND SIGNIFICANT WEATHER.
      TMP - AIR TEMPERATURE.    DP   - DEWPOINT TEMPERATURE.
      RH  - RELATIVE HUMIDITY.  PRES - PRESSURE.
      HX  - HEAT INDEX.         WCI  - WIND CHILL INDEX.

*  THESE STATIONS ARE NOT NWS OR FAA STATIONS AND ARE NOT UNDER
   NWS QUALITY CONTROL.

LAZ040-048-061>063-065-066-069-222300-
SOUTHEAST LOUISIANA

CITY           SKY/WX    TMP DP  RH WIND       PRES   REMARKS
N.O. AUDUBON     N/A     73  68  85 MISG        N/A
N.O. INTL ARPT PTSUNNY   74  66  76 S14       29.70F
N.O. LAKEFRONT SUNNY     74  65  73 S20       29.71F
N.O. DOWNTOWN* FAIR      72  64  78 S13G22    29.72F
SLIDELL        CLOUDY    73  66  78 SW10      29.70F
BATON ROUGE    MOSUNNY   74  62  66 S13       29.66F
BOOTHVILLE     MOSUNNY   70  67  90 S12       29.76S
BELLE CHASSE   PTSUNNY   73  68  84 S15       29.72S
BOGALUSA*        N/A     77  64  63 SW9       29.70F
GALLIANO*      MOCLDY    74  68  80 MISG      29.74R
NEW ROADS*     MOCLDY    73  62  68 SW8       29.65F
GONZALES*      MOCLDY    74  65  74 SW5       29.68F
HAMMOND*       NOT AVBL
HOUMA*         PTSUNNY   72  70  94 S15       29.72S
PORT FOURCHON* CLEAR     72  68  88 S8G16     29.77S

$$

LAZ041-044-053-054-222300-
SOUTHWEST LOUISIANA

CITY           SKY/WX    TMP DP  RH WIND       PRES   REMARKS
LAKE CHARLES   MOSUNNY   70  62  76 SW12G20   29.63F
LAFAYETTE      PTSUNNY   74  63  68 S16G22    29.66F
PATTERSON      CLOUDY    72  66  83 SW10      29.71S
SALT POINT       N/A     71  66  84 VRB5      29.70S
NEW IBERIA     PTSUNNY   75  64  68 SW16      29.68F
CHENAULT AIRPK MOSUNNY   70  63  78 S16G25    29.63F

$$

LAZ027-028-222300-
CENTRAL LOUISIANA

CITY           SKY/WX    TMP DP  RH WIND       PRES   REMARKS
FORT POLK      MOSUNNY   70  61  71 SW10G21   29.59F
ALEXANDRIA INT PTSUNNY   69  62  78 S8        29.58F
ALEXANDRIA     PTSUNNY   70  61  73 S7        29.60F

$$

LAZ001-002-222300-
NORTHWEST LOUISIANA

CITY           SKY/WX    TMP DP  RH WIND       PRES   REMARKS
SHREVEPORT     PTSUNNY   69  56  62 SW10      29.55R
BARKSDALE AFB  NOT AVBL
DTN SHREVEPORT PTSUNNY   67  55  65 S7        29.55R

$$

LAZ014-016-222300-
NORTHEAST LOUISIANA

CITY           SKY/WX    TMP DP  RH WIND       PRES   REMARKS
MONROE         MOSUNNY   66  59  78 S12       29.60F
TALLULAH       CLOUDY    67  60  78 SW5       29.64R

$$





U.S. Dept. of Commerce
NOAA National Weather Service
1325 East West Highway
Silver Spring, MD 20910
E-mail: w-nws.webmaster@noaa.gov
Page last modified: May 16, 2007
NATIONAL WEATHER SERVICE: for Safety, for Work, for Fun - FOR LIFE